Regional Weather Roundup
Issued by NWS

Home | Current Version | Previous Version | Graphics & Text | Print | Product List | Glossary On
Versions: 1 2 3 4 5 6 7 8 9 10 11 12 13 14 15 16 17 18 19 20 21 22 23 24 25 26 27 28
000
ASUS45 KCYS 230910
RWRWY

WYOMING REGIONAL WEATHER ROUNDUP
NATIONAL WEATHER SERVICE CHEYENNE WY
300 AM MDT WED MAY 23 2018

NOTE:  "FAIR" INDICATES FEW OR NO CLOUDS BELOW 12,000 FEET
WITH NO SIGNIFICANT WEATHER AND/OR OBSTRUCTIONS TO VISIBILITY.

WYZ001-231000-
YELLOWSTONE NATIONAL PARK

CITY           SKY/WX    TMP DP  RH WIND       PRES   REMARKS
LK YELLOWSTONE   N/A     40  38  93 CALM      30.09R
W YELLOWSTONE  NOT AVBL

$$
WYZ002>013-054>058-071-098>099-231000-
NORTHERN WYOMING

CITY           SKY/WX    TMP DP  RH WIND       PRES   REMARKS
JACKSON        LGT RAIN  47  45  93 CALM      30.02F
CODY           RAIN      51  50  96 NE3       30.00F
GREYBULL       LGT RAIN  56  55  97 NW7       29.94F
WORLAND        CLOUDY    54  54 100 NW5       29.94F
SHERIDAN       LGT RAIN  55  53  93 N5        29.93S
BUFFALO        LGT RAIN  54  48  80 W9        29.95F
GILLETTE       CLOUDY    54  52  93 NE3       29.93S
NEWCASTLE      FAIR      52  52 100 S12       29.91F

$$
WYZ014>020-022>026-101>103-231000-
CENTRAL WYOMING

CITY           SKY/WX    TMP DP  RH WIND       PRES   REMARKS
BIG PINEY      LGT RAIN  45  43  93 CALM      30.06F
PINEDALE       RAIN      45  43  93 CALM      30.07F
DUBOIS         RAIN      39  37  93 NW5       30.05S
LANDER         FAIR      47  44  90 CALM      29.98F
RIVERTON       CLOUDY    50  47  89 NW8       29.99F
CASPER         MOCLDY    50  50 100 SW9       29.97F
DOUGLAS        CLOUDY    52  52 100 N3        29.96F

$$
WYZ021-027>030-104>119-231000-
SOUTHERN WYOMING

CITY           SKY/WX    TMP DP  RH WIND       PRES   REMARKS
EVANSTON       FAIR      44  40  85 E5        30.04S
KEMMERER       FAIR      41  37  87 N8        30.05F
FORT BRIDGER   FAIR      44  43  99 S7        30.08S
ROCK SPRINGS   FAIR      42  39  89 CALM      30.04F
DIXON          FAIR      37  34  92 NE5       30.07F WCI  33
RAWLINS        FAIR      38  35  89 E3        30.06S
SARATOGA       FAIR      43  43 100 S12       30.08S
LARAMIE        FAIR      39  37  92 S8        30.06S WCI  33
CHEYENNE       FAIR      48  45  89 W7        30.02S
TORRINGTON     FAIR      52  52 100 CALM      29.93R
PINE BLUFFS    FAIR      48  46  93 CALM      29.98R

$$




USA.gov is the U.S. government's official web portal to all federal, state and local government web resources and services.